Location: Jackson Park
(37.2862°N, 79.9123°W)
Time: 12:06:35
(UTC+00:00)

Vanguard 2 - Pass Details

Date: 11 May 2026
Orbit: 553 x 2894 km, 32.9° (Epoch: 11 June)

Event Time Altitude Azimuth Distance (km) Brightness Sun altitude
Rises 09:37:33 0° 253° (WSW) 6,729 - -7.4°
Exits shadow 09:40:30 - 253° (WSW) 6,055 11.4 -6.9°
Reaches altitude 10° 09:42:09 10° 252° (WSW) 5,674 11.3 -6.6°
Maximum altitude 09:59:05 71° 173° (S) 2,458 10.0 -3.6°
Drops below altitude 10° 10:10:33 10° 92° (E) 4,017 12.5 -1.5°
Sets 10:13:14 0° 90° (E) 4,738 13.0 -1.0°
